FW2695 Weather Reports


time (UTC)temp
C
wind
direction
speed
KPH
gust
KPH
rain 1hr
cm
rain 24hr
cm
rain mn
cm
humidity
%
barometer
mb
20260831233039 32 218 0.0 1.6 0.00 0.00 0.00 68 1013.1
20260831231539 32 218 0.0 1.6 0.00 0.00 0.00 59 1013.3
20260831230038 32 242 0.0 3.2 0.00 0.00 0.00 61 1013.3
20260831224536 32 247 3.2 8.0 0.00 0.00 0.00 60 1013.3
20260831223036 32 214 1.6 6.4 0.00 0.00 0.00 61 1013.4
20260831221537 32 222 4.8 9.7 0.00 0.00 0.00 60 1013.5
20260831220034 32 181 1.6 9.7 0.00 0.00 0.00 58 1013.6
20260831214537 33 89 1.6 3.2 0.00 0.00 0.00 56 1013.6
20260831213032 33 214 0.0 4.8 0.00 0.00 0.00 58 1013.7
20260831211529 32 292 1.6 4.8 0.00 0.00 0.00 58 1013.8
20260831210028 32 224 1.6 6.4 0.00 0.00 0.00 58 1014.0
20260831204527 32 224 3.2 11.3 0.00 0.00 0.00 57 1013.9
20260831203025 32 210 4.8 11.3 0.00 0.00 0.00 57 1014.2
20260831201524 32 258 1.6 6.4 0.00 0.00 0.00 61 1014.2
20260831200023 32 248 1.6 8.0 0.00 0.00 0.00 61 1014.3
20260831194521 32 255 1.6 6.4 0.00 0.00 0.00 62 1014.4
20260831193031 32 243 4.8 11.3 0.00 0.00 0.00 59 1014.5
20260831191516 31 269 3.2 12.9 0.00 0.00 0.00 59 1014.5
20260831190032 31 284 1.6 9.7 0.00 0.00 0.00 63 1014.6
20260831184511 31 205 3.2 8.0 0.00 0.00 0.00 66 1014.7
20260831183011 30 205 4.8 14.5 0.00 0.00 0.00 67 1014.9
20260831181506 30 254 3.2 12.9 0.00 0.00 0.00 68 1015.0
20260831180005 30 181 3.2 9.7 0.00 0.00 0.00 71 1015.0
20260831174631 28 272 3.2 8.0 0.00 0.00 0.00 70 1015.0
20260831173058 28 273 0.0 4.8 0.00 0.00 0.00 71 1014.9
20260831171555 28 210 1.6 4.8 0.00 0.00 0.00 73 1014.8
20260831170057 28 252 3.2 8.0 0.00 0.00 0.00 73 1014.8
20260831164556 28 293 1.6 4.8 0.00 0.00 0.00 72 1014.7
20260831163050 28 270 1.6 4.8 0.00 0.00 0.00 73 1014.6
20260831161546 27 252 1.6 6.4 0.00 0.00 0.00 75 1014.6
20260831160042 26 310 1.6 9.7 0.00 0.00 0.00 76 1014.3
20260831154541 26 347 0.0 4.8 0.00 0.00 0.00 78 1014.2
20260831153043 25 354 1.6 8.0 0.00 0.00 0.00 80 1013.9
20260831151538 24 286 0.0 4.8 0.00 0.00 0.00 82 1013.7
20260831150028 23 301 0.0 4.8 0.00 0.00 0.00 84 1013.5
20260831144527 22 284 0.0 3.2 0.00 0.00 0.00 85 1013.5
20260831143029 22 283 0.0 4.8 0.00 0.00 0.00 84 1013.8
20260831141526 22 101 1.6 6.4 0.00 0.00 0.00 84 1013.7
20260831140031 22 292 1.6 6.4 0.00 0.00 0.00 84 1013.6
20260831134525 22 248 0.0 1.6 0.00 0.00 0.00 83 1013.3
20260831133022 -17 0.0 0.0 0.00 0.00 0.00 1013.3
20260831131519 -17 0.0 0.0 0.00 0.00 0.00 1012.7
20260831130015 -17 0.0 0.0 0.00 0.00 0.00 1012.8
20260831124509 -17 0.0 0.0 0.00 0.00 0.00 1012.9
20260831123007 -17 0.0 0.0 0.00 0.00 0.00 1013.4
20260831121501 -17 0.0 0.0 0.00 0.00 0.00 1013.7
20260831120057 -17 0.0 0.0 0.00 0.00 0.00 1013.6
20260831114553 -17 0.0 0.0 0.00 0.00 0.00 1013.5
20260831113055 -17 0.0 0.0 0.00 0.00 0.00 1012.7
20260831111545 -17 0.0 0.0 0.00 0.00 0.00 1012.5
20260831110040 -17 0.0 0.0 0.00 0.00 0.00 1011.8
20260831104549 -17 0.0 0.0 0.00 0.00 0.00 1011.8
20260831103032 -17 207 0.0 3.2 0.00 0.00 0.00 1011.5
20260831101529 22 209 0.0 3.2 0.00 0.00 0.00 93 1011.5
20260831100028 22 194 1.6 6.4 0.00 0.00 0.00 91 1011.6
20260831094537 22 290 1.6 4.8 0.00 0.00 0.00 91 1011.3
20260831093030 22 288 0.0 1.6 0.00 0.00 0.00 91 1010.8
20260831091536 22 288 1.6 3.2 0.00 0.00 0.00 90 1010.9
20260831090022 22 219 0.0 4.8 0.00 0.00 0.00 89 1010.6
20260831084549 23 224 0.0 3.2 0.00 0.00 0.00 88 1010.3
20260831083020 23 224 0.0 4.8 0.00 0.00 0.00 88 1010.2
20260831081520 22 229 3.2 9.7 0.00 0.00 0.00 91 1010.3
20260831080036 22 223 1.6 4.8 0.00 0.00 0.00 93 1010.4
20260831074535 22 145 0.0 1.6 0.00 0.00 0.00 93 1010.2
20260831073018 22 225 0.0 1.6 0.00 0.00 0.00 93 1010.4
20260831071517 22 197 1.6 3.2 0.00 0.00 0.00 92 1010.3
20260831070017 22 195 1.6 3.2 0.00 0.00 0.00 90 1010.6
20260831064517 22 287 1.6 4.8 0.00 0.00 0.00 91 1010.8
20260831063016 22 293 3.2 4.8 0.00 0.00 0.00 95 1010.7
20260831061513 22 293 0.0 1.6 0.00 0.00 0.00 95 1010.5
20260831060011 22 293 0.0 0.0 0.00 0.00 0.00 94 1010.3
20260831054511 22 293 0.0 1.6 0.00 0.00 0.00 93 1010.0
20260831053006 22 293 0.0 1.6 0.00 0.00 0.00 92 1009.9
20260831051512 22 293 0.0 1.6 0.00 0.00 0.00 92 1009.9
20260831050111 23 293 0.0 0.0 0.00 0.00 0.00 91 1009.8
20260831044600 23 293 0.0 1.6 0.00 0.00 0.00 90 1009.8
20260831043059 24 293 0.0 3.2 0.00 0.00 0.00 89 1010.0
20260831041559 25 293 0.0 1.6 0.00 0.00 0.00 87 1010.0
20260831040059 25 86 0.0 1.6 0.00 0.00 0.00 87 1009.9
20260831034610 25 86 0.0 0.0 0.00 0.00 0.00 88 1009.9
20260831033101 25 86 3.2 3.2 0.00 0.00 0.00 91 1009.8
20260831031557 25 245 0.0 0.0 0.00 0.00 0.00 88 1009.9
20260831030056 26 244 0.0 0.0 0.00 0.00 0.00 85 1009.9
20260831024559 26 244 0.0 0.0 0.00 0.00 0.00 84 1009.9
20260831023053 26 244 0.0 1.6 0.00 0.00 0.00 84 1009.8
20260831021553 26 244 0.0 0.0 0.00 0.00 0.00 85 1009.6
20260831020052 27 245 0.0 0.0 0.00 0.00 0.00 83 1009.4
20260831014551 27 244 0.0 0.0 0.00 0.00 0.00 80 1009.3
20260831013051 27 244 0.0 0.0 0.00 0.00 0.00 80 1009.1
20260831011558 28 244 0.0 0.0 0.00 0.00 0.00 78 1009.0
20260831010100 28 245 0.0 0.0 0.00 0.00 0.00 76 1008.9
20260831004548 29 245 0.0 0.0 0.00 0.00 0.00 75 1008.9
20260831003050 30 244 0.0 0.0 0.00 0.00 0.00 73 1008.9
20260831001547 31 245 0.0 0.0 0.00 0.00 0.00 67 1008.9
20260831000047 31 245 0.0 3.2 0.00 0.00 0.00 65 1009.0
20260830234546 31 244 0.0 1.6 0.00 0.00 0.00 66 1008.9